Location: Jackson Park
(37.2862°N, 79.9123°W)
Time: 11:25:37
(UTC+00:00)

S-56A Canister/Altair - Pass Details

Date: 17 May 2026
Orbit: 632 x 2484 km, 38.9° (Epoch: 9 June)

Event Time Altitude Azimuth Distance (km) Brightness Sun altitude
Rises 22:33:51 0° 204° (SSW) 3,920 11.3 19.9°
Reaches altitude 10° 22:38:00 10° 184° (S) 2,625 10.3 19.0°
Maximum altitude 22:41:28 16° 148° (SSE) 1,999 9.4 18.4°
Drops below altitude 10° 22:44:29 10° 111° (ESE) 2,203 9.4 17.8°
Sets 22:47:30 0° 88° (E) 2,991 10.0 17.2°
